When you browse on this site, cookies collect data to enhance your experience and personalize the content and advertising you see.
Visit our Privacy Policy to learn more. By continuing to use the site, you agree to this use of cookies and data.
  • In Österreich
  • Länderverzeichnis
  • Für 7 Tage
  • Wassertemperatur
  • Satellitenkarten
  • Wetterkarte
  • News
  • Widgets
  • user-avatar
    Anmelden

    Stündliche Wetter Ploskosh

    Heute, 18 Februar, Montag

    Zeit Temperatur Niederschläge Wind Luftdruck Luftfeuchtigkeit
    00:00 -5°C° 0 mm 4 m/S 751 mmHg 79%
    01:00 -5°C° 0 mm 4 m/S 752 mmHg 79%
    02:00 -6°C° 0 mm 3 m/S 753 mmHg 80%
    03:00 -6°C° 0 mm 3 m/S 753 mmHg 81%
    04:00 -6°C° 0 mm 3 m/S 754 mmHg 83%
    05:00 -7°C° 0 mm 3 m/S 754 mmHg 84%
    06:00 -6°C° 0 mm 2 m/S 755 mmHg 85%
    07:00 -6°C° 0 mm 2 m/S 755 mmHg 86%
    08:00 -6°C° 0 mm 2 m/S 756 mmHg 87%
    09:00 -5°C° 0 mm 2 m/S 756 mmHg 83%
    10:00 -5°C° 0 mm 2 m/S 757 mmHg 79%
    11:00 -4°C° 0 mm 2 m/S 757 mmHg 75%
    12:00 -1°C° 0 mm 1 m/S 757 mmHg 72%
    13:00 -1°C° 0 mm 1 m/S 757 mmHg 68%
    14:00 0°C° 0 mm 1 m/S 757 mmHg 65%
    15:00 -1°C° 0 mm 1 m/S 757 mmHg 68%
    16:00 -2°C° 0 mm 1 m/S 757 mmHg 72%
    17:00 -4°C° 0 mm 0 m/S 757 mmHg 76%
    18:00 -3°C° 0 mm 1 m/S 757 mmHg 77%
    19:00 -3°C° 0 mm 1 m/S 757 mmHg 78%
    20:00 -5°C° 0 mm 2 m/S 757 mmHg 79%
    21:00 -5°C° 0 mm 2 m/S 756 mmHg 78%
    22:00 -6°C° 0 mm 3 m/S 756 mmHg 78%
    23:00 -6°C° 0 mm 3 m/S 756 mmHg 77%

    Morgen, 19 Februar, Dienstag

    Zeit Temperatur Niederschläge Wind Luftdruck Luftfeuchtigkeit
    00:00 -6°C° 0 mm 3 m/S 755 mmHg 75%
    01:00 -7°C° 0 mm 4 m/S 755 mmHg 74%
    02:00 -5°C° 0 mm 4 m/S 754 mmHg 72%
    03:00 -5°C° 0 mm 4 m/S 754 mmHg 72%
    04:00 -5°C° 0 mm 4 m/S 753 mmHg 72%
    05:00 -6°C° 0 mm 5 m/S 752 mmHg 71%
    06:00 -6°C° 0 mm 5 m/S 752 mmHg 74%
    07:00 -5°C° 0 mm 5 m/S 752 mmHg 77%
    08:00 -5°C° 0 mm 5 m/S 751 mmHg 79%
    09:00 -4°C° 0 mm 5 m/S 751 mmHg 78%
    10:00 -2°C° 0 mm 5 m/S 750 mmHg 76%
    11:00 -1°C° 0 mm 5 m/S 750 mmHg 74%
    12:00 0°C° 0 mm 5 m/S 749 mmHg 74%
    13:00 0°C° 0 mm 5 m/S 749 mmHg 74%
    14:00 +1°C° 0 mm 5 m/S 748 mmHg 74%
    15:00 0°C° 0 mm 5 m/S 747 mmHg 76%
    16:00 -1°C° 0 mm 5 m/S 747 mmHg 79%
    17:00 -1°C° 0 mm 5 m/S 746 mmHg 81%
    18:00 -1°C° 0 mm 5 m/S 746 mmHg 83%
    19:00 -1°C° 0 mm 5 m/S 745 mmHg 85%
    20:00 -1°C° 0 mm 5 m/S 745 mmHg 87%
    21:00 -1°C° 0 mm 5 m/S 744 mmHg 88%
    22:00 -1°C° 0 mm 5 m/S 743 mmHg 89%
    23:00 0°C° 0 mm 5 m/S 743 mmHg 89%

    übermorgen, 20 Februar, Mittwoch

    Zeit Temperatur Niederschläge Wind Luftdruck Luftfeuchtigkeit
    00:00 0°C° 0 mm 5 m/S 742 mmHg 90%
    01:00 0°C° 0 mm 5 m/S 742 mmHg 90%
    02:00 0°C° 0 mm 4 m/S 741 mmHg 90%
    03:00 0°C° 0.4 mm 5 m/S 741 mmHg 90%
    04:00 0°C° 0.4 mm 5 m/S 740 mmHg 90%
    05:00 0°C° 0.4 mm 5 m/S 740 mmHg 89%
    06:00 0°C° 0.2 mm 5 m/S 740 mmHg 90%
    07:00 0°C° 0.2 mm 4 m/S 740 mmHg 91%
    08:00 0°C° 0.2 mm 4 m/S 740 mmHg 92%
    09:00 +1°C° 0.1 mm 4 m/S 740 mmHg 88%
    10:00 +1°C° 0.1 mm 5 m/S 740 mmHg 84%
    11:00 +2°C° 0.1 mm 5 m/S 740 mmHg 80%
    12:00 +1°C° 0.2 mm 5 m/S 739 mmHg 81%
    13:00 +1°C° 0.2 mm 5 m/S 739 mmHg 83%
    14:00 +1°C° 0.2 mm 5 m/S 739 mmHg 84%
    15:00 +1°C° 0.3 mm 5 m/S 739 mmHg 84%
    16:00 +1°C° 0.3 mm 5 m/S 739 mmHg 84%
    17:00 +1°C° 0.3 mm 5 m/S 738 mmHg 84%
    18:00 0°C° 0.1 mm 5 m/S 739 mmHg 81%
    19:00 -1°C° 0.1 mm 5 m/S 739 mmHg 77%
    20:00 -2°C° 0.1 mm 5 m/S 739 mmHg 74%
    21:00 -4°C° 0.1 mm 5 m/S 739 mmHg 76%
    22:00 -4°C° 0.1 mm 5 m/S 739 mmHg 78%
    23:00 -5°C° 0.1 mm 5 m/S 740 mmHg 80%

    21 Februar, Donnerstag

    Zeit Temperatur Niederschläge Wind Luftdruck Luftfeuchtigkeit
    00:00 -5°C° 0.2 mm 5 m/S 740 mmHg 80%
    01:00 -5°C° 0.2 mm 6 m/S 740 mmHg 80%
    02:00 -5°C° 0.2 mm 6 m/S 740 mmHg 80%
    03:00 -5°C° 0.3 mm 6 m/S 740 mmHg 80%
    04:00 -5°C° 0.3 mm 6 m/S 741 mmHg 80%
    05:00 -5°C° 0.3 mm 6 m/S 741 mmHg 80%
    06:00 -6°C° 0.1 mm 6 m/S 741 mmHg 77%
    07:00 -6°C° 0.1 mm 6 m/S 742 mmHg 74%
    08:00 -7°C° 0.1 mm 7 m/S 743 mmHg 71%
    09:00 -7°C° 0.1 mm 7 m/S 744 mmHg 71%
    10:00 -8°C° 0.1 mm 7 m/S 745 mmHg 71%
    11:00 -8°C° 0.1 mm 7 m/S 746 mmHg 71%
    12:00 -8°C° 0.1 mm 7 m/S 747 mmHg 70%
    13:00 -8°C° 0.1 mm 7 m/S 748 mmHg 70%
    14:00 -7°C° 0.1 mm 7 m/S 748 mmHg 69%
    15:00 -8°C° 0.1 mm 6 m/S 749 mmHg 70%
    16:00 -8°C° 0.1 mm 6 m/S 750 mmHg 71%
    17:00 -9°C° 0.1 mm 6 m/S 751 mmHg 72%
    18:00 -9°C° 0 mm 6 m/S 752 mmHg 71%
    19:00 -10°C° 0 mm 6 m/S 753 mmHg 71%
    20:00 -10°C° 0 mm 6 m/S 754 mmHg 71%
    21:00 -10°C° 0 mm 5 m/S 754 mmHg 71%
    22:00 -11°C° 0 mm 5 m/S 755 mmHg 71%
    23:00 -11°C° 0 mm 5 m/S 756 mmHg 71%

    22 Februar, Freitag

    Zeit Temperatur Niederschläge Wind Luftdruck Luftfeuchtigkeit
    00:00 -12°C° 0 mm 5 m/S 756 mmHg 72%
    01:00 -12°C° 0 mm 5 m/S 757 mmHg 72%
    02:00 -12°C° 0 mm 5 m/S 757 mmHg 73%
    03:00 -13°C° 0 mm 5 m/S 758 mmHg 74%
    04:00 -13°C° 0 mm 5 m/S 759 mmHg 75%
    05:00 -13°C° 0 mm 5 m/S 760 mmHg 76%
    06:00 -12°C° 0 mm 4 m/S 761 mmHg 74%
    07:00 -12°C° 0 mm 4 m/S 761 mmHg 72%
    08:00 -12°C° 0 mm 4 m/S 762 mmHg 70%
    09:00 -11°C° 0 mm 4 m/S 763 mmHg 67%
    10:00 -10°C° 0 mm 4 m/S 764 mmHg 64%
    11:00 -8°C° 0 mm 3 m/S 764 mmHg 61%
    12:00 -7°C° 0 mm 3 m/S 764 mmHg 60%
    13:00 -6°C° 0 mm 3 m/S 765 mmHg 59%
    14:00 -6°C° 0 mm 3 m/S 765 mmHg 58%
    15:00 -6°C° 0 mm 3 m/S 765 mmHg 63%
    16:00 -7°C° 0 mm 3 m/S 766 mmHg 67%
    17:00 -6°C° 0 mm 2 m/S 766 mmHg 71%
    18:00 -7°C° 0 mm 2 m/S 766 mmHg 74%
    19:00 -7°C° 0 mm 2 m/S 766 mmHg 77%
    20:00 -8°C° 0 mm 2 m/S 767 mmHg 81%
    21:00 -8°C° 0 mm 2 m/S 767 mmHg 81%
    22:00 -8°C° 0 mm 2 m/S 767 mmHg 81%
    23:00 -9°C° 0 mm 2 m/S 767 mmHg 81%

    23 Februar, Samstag

    Zeit Temperatur Niederschläge Wind Luftdruck Luftfeuchtigkeit
    00:00 -8°C° 0 mm 1 m/S 766 mmHg 80%
    01:00 -8°C° 0 mm 1 m/S 766 mmHg 80%
    02:00 -8°C° 0 mm 1 m/S 765 mmHg 79%
    03:00 -8°C° 0 mm 2 m/S 765 mmHg 76%
    04:00 -8°C° 0 mm 2 m/S 764 mmHg 74%
    05:00 -7°C° 0 mm 2 m/S 763 mmHg 71%
    06:00 -7°C° 0.4 mm 2 m/S 763 mmHg 78%
    07:00 -8°C° 0.4 mm 3 m/S 762 mmHg 86%
    08:00 -8°C° 0.4 mm 3 m/S 761 mmHg 94%
    09:00 -8°C° 1 mm 3 m/S 760 mmHg 94%
    10:00 -7°C° 1 mm 3 m/S 760 mmHg 94%
    11:00 -6°C° 1 mm 3 m/S 759 mmHg 94%
    12:00 -6°C° 0.3 mm 3 m/S 759 mmHg 93%
    13:00 -5°C° 0.3 mm 3 m/S 758 mmHg 92%
    14:00 -4°C° 0.3 mm 3 m/S 758 mmHg 91%
    15:00 -4°C° 0.1 mm 3 m/S 757 mmHg 92%
    16:00 -2°C° 0.1 mm 2 m/S 757 mmHg 93%
    17:00 -2°C° 0.1 mm 2 m/S 757 mmHg 94%
    18:00 -1°C° 0.1 mm 2 m/S 757 mmHg 95%
    19:00 -1°C° 0.1 mm 2 m/S 758 mmHg 96%
    20:00 -1°C° 0.1 mm 2 m/S 758 mmHg 97%
    21:00 -1°C° 0 mm 2 m/S 758 mmHg 97%
    22:00 -1°C° 0 mm 2 m/S 758 mmHg 97%
    23:00 -1°C° 0 mm 2 m/S 758 mmHg 98%
    Mehr zeigen